EW5319 Weather Reports


time (UTC)temp
F
wind
direction
speed
knots
gust
knots
rain 1hr
in
rain 24hr
in
rain mn
in
humidity
%
barometer
mb
20260503233550 60 232 5.2 12.2 0.00 0.00 0.00 43 1004.9
20260503232529 60 214 5.2 13.9 0.00 0.00 0.00 43 1004.7
20260503231559 60 223 6.1 16.5 0.00 0.00 0.00 43 1004.7
20260503230528 60 235 7.8 15.6 0.00 0.00 0.00 44 1004.7
20260503225527 61 228 7.0 13.0 0.00 0.00 0.00 43 1004.8
20260503224557 61 227 6.1 12.2 0.00 0.00 0.00 43 1004.9
20260503223556 61 237 5.2 13.0 0.00 0.00 0.00 43 1004.9
20260503222555 62 220 7.0 13.9 0.00 0.00 0.00 43 1005.0
20260503221524 62 229 7.0 10.4 0.00 0.00 0.00 43 1005.0
20260503220524 62 221 7.0 13.9 0.00 0.00 0.00 43 1005.3
20260503215522 62 237 7.8 18.2 0.00 0.00 0.00 43 1005.1
20260503214521 62 233 6.1 13.0 0.00 0.00 0.00 42 1005.1
20260503213520 63 240 7.8 13.0 0.00 0.00 0.00 41 1005.0
20260503212520 63 213 9.6 21.7 0.00 0.00 0.00 40 1005.1
20260503211539 64 215 7.8 18.2 0.00 0.00 0.00 40 1005.3
20260503210548 64 237 5.2 12.2 0.00 0.00 0.00 41 1004.9
20260503205617 64 229 4.3 12.2 0.00 0.00 0.00 44 1005.0
20260503204547 64 231 6.1 15.6 0.00 0.00 0.00 42 1005.0
20260503203545 64 231 6.1 13.0 0.00 0.00 0.00 44 1005.2
20260503202544 64 214 5.2 12.2 0.00 0.00 0.00 45 1005.1
20260503201543 64 242 3.5 10.4 0.00 0.00 0.00 47 1005.3
20260503200602 62 230 4.3 13.0 0.00 0.00 0.00 47 1005.4
20260503195542 63 226 7.0 15.6 0.00 0.00 0.00 45 1005.6
20260503194611 63 234 5.2 13.9 0.00 0.00 0.00 46 1005.7
20260503193540 62 240 5.2 10.4 0.00 0.00 0.00 45 1005.9
20260503192540 62 226 7.8 16.5 0.00 0.00 0.00 45 1006.0
20260503191539 62 226 4.3 12.2 0.00 0.00 0.00 46 1006.1
20260503190708 62 235 7.8 15.6 0.00 0.00 0.00 45 1006.4
20260503185618 63 203 6.1 9.6 0.00 0.00 0.00 47 1006.6
20260503184537 63 246 4.3 12.2 0.00 0.00 0.00 48 1006.5
20260503183806 62 188 2.6 9.6 0.00 0.00 0.00 49 1006.5
20260503182536 62 234 4.3 9.6 0.00 0.00 0.00 49 1007.0
20260503181705 62 237 4.3 9.6 0.00 0.00 0.00 49 1006.8
20260503180534 62 254 6.1 12.2 0.00 0.00 0.00 45 1007.0
20260503175704 61 214 4.3 8.7 0.00 0.00 0.00 47 1007.2
20260503174533 61 222 8.7 15.6 0.00 0.00 0.00 45 1007.1
20260503173532 61 234 7.0 15.6 0.00 0.00 0.00 47 1007.3
20260503172802 61 228 6.1 18.2 0.00 0.00 0.00 47 1007.6
20260503171601 60 238 4.3 12.2 0.00 0.00 0.00 48 1007.5
20260503170800 59 218 7.8 15.6 0.00 0.00 0.00 45 1007.6
20260503150551 56 219 4.3 18.2 0.00 0.00 0.00 49 1008.3
20260503130601 47 241 3.5 8.7 0.00 0.00 0.00 61 1009.2
20260503110532 34 200 0.9 2.6 0.00 0.00 0.00 26 1009.0
20260503081537 34 208 0.9 3.5 0.00 0.01 0.00 37 1009.0
20260503080606 34 212 0.9 2.6 0.00 0.01 0.00 38 1009.1
20260503072543 34 196 0.9 0.9 0.00 0.02 0.00 41 1009.0
20260503071542 34 207 0.9 2.6 0.00 0.02 0.00 42 1009.0
20260503070542 35 205 0.9 2.6 0.00 0.03 0.00 43 1009.0
20260503054536 35 212 0.9 0.9 0.00 0.05 0.00 50 1009.4
20260503053535 35 158 0.9 0.9 0.00 0.05 0.00 52 1009.6
20260503052535 36 206 0.9 2.6 0.00 0.05 0.00 53 1009.6
20260503051634 36 0.0 0.0 0.00 0.05 0.00 54 1009.6
20260503050603 36 0.0 0.0 0.00 0.05 0.00 55 1009.5
20260503045553 37 180 0.0 0.9 0.00 0.05 0.00 55 1009.9
20260503044532 37 0.0 0.0 0.00 0.05 0.00 56 1009.9
20260503043601 37 135 0.0 0.9 0.00 0.05 0.00 57 1009.8
20260503042631 38 0.0 0.0 0.00 0.06 0.00 58 1009.8
20260503041630 38 0.0 0.0 0.00 0.06 0.00 59 1009.9
20260503040659 39 0.0 0.0 0.00 0.06 0.00 59 1009.8
20260503035529 39 135 0.0 0.9 0.00 0.06 0.06 59 1009.8
20260503034558 40 0.0 0.9 0.00 0.06 0.06 59 1010.0
20260503033528 41 215 0.9 0.9 0.00 0.06 0.06 59 1010.0
20260503032647 41 161 0.0 0.9 0.00 0.06 0.06 59 1010.0
20260503031556 41 0.0 0.0 0.00 0.06 0.06 59 1010.0
20260503030556 42 203 0.0 0.9 0.00 0.06 0.06 59 1010.0
20260503025725 42 0.0 0.0 0.00 0.06 0.06 59 1010.1
20260503024524 42 0.0 0.0 0.00 0.06 0.06 60 1010.3
20260503023723 42 0.0 0.0 0.00 0.06 0.06 60 1010.6
20260503022521 42 166 0.9 2.6 0.00 0.06 0.06 60 1010.3
20260503021541 42 0.0 0.0 0.00 0.06 0.06 61 1010.6
20260503020520 42 175 0.9 3.5 0.00 0.06 0.06 61 1010.5
20260503015549 42 197 0.0 0.9 0.00 0.06 0.06 61 1010.4
20260503014549 42 180 0.0 0.9 0.00 0.06 0.06 62 1010.5
20260503013548 42 270 0.9 2.6 0.00 0.06 0.06 62 1010.5
20260503012637 43 270 0.0 0.9 0.00 0.06 0.06 62 1010.5
20260503011545 43 0.0 0.0 0.00 0.06 0.06 62 1010.5
20260503010545 43 270 0.0 0.9 0.00 0.06 0.06 62 1010.2
20260503005544 43 212 0.9 2.6 0.00 0.06 0.06 62 1010.5
20260503004734 43 240 0.9 3.5 0.00 0.06 0.06 62 1010.3
20260503003542 44 252 0.9 2.6 0.00 0.06 0.06 62 1010.2
20260503002542 44 203 0.9 3.5 0.00 0.06 0.06 62 1010.4
20260503001541 44 232 1.7 4.3 0.00 0.06 0.06 62 1010.3
20260503000601 44 270 0.9 3.5 0.00 0.06 0.06 62 1010.3
20260502235610 44 241 1.7 3.5 0.00 0.06 0.06 62 1010.1
20260502234609 44 207 2.6 4.3 0.00 0.06 0.06 61 1010.3